Location: Gadern
(49.5873°N, 8.8138°E)
Time: 17:38:01
(UTC+00:00)

Cosmos 1908 - Pass Details

Date: 19 May 2025
Orbit: 404 x 413 km, 82.5° (Epoch: 17 June)

Event Time Altitude Azimuth Distance (km) Brightness Sun altitude
Rises 23:03:13 0° 343° (NNW) 2,381 8.0 -20.3°
Reaches altitude 10° 23:05:21 10° 335° (NNW) 1,508 6.6 -20.3°
Enters shadow 23:08:17 37° 272° (W) 673 3.8 -20.4°
